Find Starlink 34808

NORAD ID: 65745 Int'l Des: 2025-216 Owner: SPXS Country: US Constellation: starlink operational
LEOCIRCULAR

当前视图

正在加载3D地球...

About Starlink 34808

Starlink 34808 (NORAD 65745) is a starlink constellation satellite (v2 mini) launched Sep 25, 2025 by SPXS of US. It operates in LEO, CIRCULAR orbit with a mass of 575.00 kg.

即将过境

Passes for default location (London). Set your location on the main map for personalized predictions.

高度历史

Loading altitude history...

两行轨道根数

1 65745U 25216M 26265.03794093 .00021269 00000-0 63868-3 0 9993
2 65745 53.1588 138.8704 0000807 94.7011 265.4084 15.34407763 56603
Epoch: Sep 22, 2026 • Age: 18 hours

当前状态

高度 475.8 km
远地点 / 近地点 N/A
速度 7.63 km/s
星下点 -39.22°S, 64.43°E
发射日期 Sep 25, 2025
运行时间 0.9 years
类型 internet

技术详情

分类 Payload
质量 575.00 kg
干质量 530.00 kg
长度 0.30 m
跨度 29.00 m
形状 ? Box + pan
制造商 SPXS
平台类型 Starlink V2MO
阶段状态 In Orbit
所有者/国家 SPXS/US

Most Searched